Surat Airport
VASU : now visible

Airfield :











YOU CAN JOIN US ON...

 
LOGIN :

Register | Disclaimer

   EN    FR    IT 

 









Legend :    VFR   Marginal VFR   IFR   Intensive IFR   Very Intensive IFR
Visi :
Ceiling :
>= 8 km
>= 3000ft
5 to 8 km
1000 to 3000 ft
1500m to 5 km
500 to 1000 ft
800 to 1500m
200 to 500 ft
< 800m
< 200 ft
Symbols :   Thunderstorms  Fog  Heavy snow  Heavy precipitations  Wind > 20 kt






- Airport Elevation : 16 ft
- IATA code : STV


VASU - Surat

CURRENT METAR :
  • 011200Z 35005KT 7000 NSC 33/17 Q1009 NOSIG

EXPIRED METARs :
  • 011130Z 35005KT 7000 NSC 34/17 Q1009 NOSIG

TAF VASU
Valid from the 01 at 12:00 until the 01 at 21:00 UTC


011100Z 0112/0121 35005KT 6000 NSC
BECMG 0116/0118 29006KT
BECMG 0118/0120 36004KT



MET'MAP, your aeronautical weather chart ! - Copyright ORBIFLY December 2007 - Disclaimer

ORBIFLY MET'MAP TEAM :

Programming & Development : Alexandra Zaïnal
Concept & original design : Baudouin d'Aumeries
Assistance for programming : Marc-Olivier Méhu
Technical & hardware support : Manuel Goepfert

Contact : metmap@orbifly.com




SOURCES & CREDITS :

   NOAA       Earth
Advisory